This demonstration page uses our WeatherBlox Daily Observations layout. Learn more.

Left ArrowRight Arrow

44.8408, -93.29828

Hourly Observations for May 18, 2015

Temp ( °F °C ) Dew Point ( °F °C ) Humidity (%) Winds ( mph kmh ) Pressure ( in mb ) Visibility ( mi km ) Precip ( " mm )
12:53 am 00:53 Cloudy 48 8.9 38 3.3 68 68 SW 18 30 29.78 1009 10 16 0.00 0.00
1:53 am 01:53 Cloudy 47 8.3 37 2.8 69 69 WSW 18 30 29.80 1009 10 16 0.00 0.00
2:53 am 02:53 Mostly Cloudy 45 7.2 35 1.7 68 68 WSW 28 44 29.80 1009 10 16 0.00 0.00
3:53 am 03:53 Cloudy 44 6.7 35 1.7 71 71 WSW 20 31 29.83 1010 10 16 0.00 0.00
4:53 am 04:53 Cloudy 43 6.1 34 1.1 71 71 WSW 18 30 29.85 1011 10 16 0.00 0.00
5:53 am 05:53 Cloudy 42 5.6 33 0.6 71 71 WSW 17 28 29.88 1012 10 16 0.00 0.00
6:53 am 06:53 Cloudy 41 5 33 0.6 73 73 WSW 15 24 29.92 1013 10 16 0.00 0.00
7:53 am 07:53 Cloudy 41 5 33 0.6 73 73 WSW 20 31 29.94 1014 10 16 0.00 0.00
8:53 am 08:53 Cloudy 41 5 34 1.1 76 76 W 20 31 29.96 1015 8 13 0.00 0.00
9:53 am 09:53 Cloudy with Light Rain 41 5 37 2.8 86 86 WSW 18 30 29.99 1016 7 11 0.00 0.03
10:04 am 10:04 Cloudy 41 5 36 2 81 81 WSW 20 31 29.97 1015 9 14 0.00 0.00
10:25 am 10:25 Cloudy 42 5.6 34 1.1 73 73 W 16 26 30.00 1016 10 16 0.00 0.03
10:53 am 10:53 Cloudy 44 6.7 34 1.1 68 68 W 21 33 30.01 1016 10 16 0.00 0.03
11:53 am 11:53 Cloudy 44 6.7 33 0.6 65 65 W 26 43 30.04 1017 10 16 0.00 0.00
12:53 pm 12:53 Cloudy 47 8.3 34 1.1 61 61 W 17 28 30.06 1018 10 16 0.00 0.00
1:53 pm 13:53 Cloudy 47 8.3 35 1.7 63 63 W 18 30 30.08 1019 10 16 0.00 0.00
2:30 pm 14:30 Cloudy 47 8.3 34 1.1 61 61 W 18 30 30.09 1019 10 16 0.00 0.00
2:53 pm 14:53 Cloudy 47 8.3 34 1.1 61 61 W 14 22 30.10 1019 10 16 0.00 0.00
3:18 pm 15:18 Cloudy 46 8 36 2 66 66 W 15 24 30.09 1019 10 16 0.00 0.00
3:53 pm 15:53 Cloudy 46 7.8 35 1.7 66 66 W 17 28 30.12 1020 10 16 0.00 0.00
4:53 pm 16:53 Cloudy 45 7.2 34 1.1 66 66 W 23 37 30.15 1021 10 16 0.00 0.00
5:53 pm 17:53 Cloudy 45 7.2 36 2.2 71 71 W 13 20 30.16 1022 10 16 0.00 0.00
6:17 pm 18:17 Cloudy 45 7.2 36 2.2 71 71 W 18 30 30.15 1021 10 16 0.00 0.00
6:26 pm 18:26 Cloudy 45 7 36 2 71 71 W 13 20 30.15 1021 10 16 0.00 0.00
6:53 pm 18:53 Cloudy 45 7.2 35 1.7 68 68 W 18 30 30.18 1022 10 16 0.00 0.00
7:39 pm 19:39 Cloudy 45 7.2 34 1.1 66 66 W 16 26 30.18 1022 10 16 0.00 0.00
7:53 pm 19:53 Cloudy 45 7.2 34 1.1 66 66 W 13 20 30.20 1023 10 16 0.00 0.00
8:09 pm 20:09 Cloudy 45 7.2 34 1.1 66 66 W 15 24 30.18 1022 10 16 0.00 0.00
8:53 pm 20:53 Cloudy 44 6.7 34 1.1 68 68 WNW 18 30 30.23 1024 10 16 0.00 0.00
9:53 pm 21:53 Cloudy 43 6.1 34 1.1 71 71 WNW 16 26 30.25 1024 10 16 0.00 0.00
10:53 pm 22:53 Cloudy 43 6.1 33 0.6 68 68 NW 13 20 30.26 1025 10 16 0.00 0.00
11:53 pm 23:53 Cloudy 43 6.1 33 0.6 68 68 NNW 17 28 30.27 1025 10 16 0.00 0.00

Powered by AerisWeather